一网星座-0228星 (ONEWEB-0228 )

导读

ONEWEB-0228是英国OneWeb低轨宽带星座的一颗通信卫星,于2021年5月28日由联盟2-1b火箭搭载发射入轨。它属于OneWeb第七批次发射组网卫星,运行于约1200公里近地轨道,配备Ku/Ka波段天线与氙等离子推力器,设计寿命超7年,为全球航空、海事及偏远地区提供低时延宽带互联网接入服务,支撑OneWeb星座的全球网络覆盖建设。

Basic Information
目录编号:
48780
目录名称:
ONEWEB-0228
国际标识:
2021-045P
轨道中心:
EARTH
卫星名称:
一网星座-0228星
卫星全名:
一网星座-0228星 (ONEWEB-0228 )
卫星状态:
在轨 (已飞行1843 天)
发射日期:
2021-05-28 UTC
国别 :
英国 (GB)
星等 :
--
Orbit Information
数据来源 国际轨道数据 AOE轨道数据
星历时间 2026-06-14T03:47:33+0800
16小时前
查看轨道信息
2026-06-14T04:00:00+0800
15小时前
查看轨道信息
半长轴 7579.915km 7579.9km
偏心率 0.0001895 0.0001772
轨道倾角 87.901° 87.901°
近地点辐角 101.942° 66.299°
升交点赤经 259.852° 259.852°
平近点角 258.193° 334.805°
近地点 1200.341km 1200.419km
远地点 1203.215km 1203.107km
周期 109.460分钟 109.460分钟
每日圈数 13.155469 13.155507
Detailed Information
平衡模式:
三轴稳定
覆盖范围:
全球
运营商:
一网卫星公司
运营商所在国:
英国
制造商(研发单位):
一网卫星公司
制造商所在国:
英国
使用方式:
暂无
Satellite Introduction
OneWeb卫星网络由648颗重约125公斤的微型卫星组成,运行在1200公里的轨道上。 每颗卫星都能够提供至少每秒8千兆位的吞吐量,以使用其高吞吐量的Ku频段有效载荷为家庭和移动平台提供互联网接入。该卫星仍在工作。
2D Orbit Map
3D Orbit Map
Orbit Altitude Analysis Chart
Orbit Inclination Analysis Chart
Orbit Comprehensive Analysis Chart
View Comprehensive Chart